Skip Page Navigation
NASA JPL Caltech
NASA Logo - Jet Propulsion Laboratory + View the NASA Portal
+ Center for Near-Earth Object Studies
JPL Home Earth Solar System Stars & Galaxies Technology
JPL Solar System Dynamics
BODIES ORBITS EPHEMERIDES TOOLS PHYSICAL DATA DISCOVERY FAQ SITE MAP
JPL Small-Body Database Browser
Search: [ help ]  
186620 (2003 FY37)
Classification: Inner Main-belt Asteroid          SPK-ID: 2186620
Ephemeris | Orbit Diagram | Orbital Elements | Mission Design | Physical Parameters | Discovery Circumstances ]

[ show orbit diagram ]
Orbital Elements at Epoch 2459200.5 (2020-Dec-17.0) TDB
Reference: JPL 12 (heliocentric ecliptic J2000)
 Element Value Uncertainty (1-sigma)   Units 
e .07949021837145502 4.4084e-08  
a 1.81613292394957 6.7191e-09 au
q 1.67176812123323 7.8832e-08 au
i 22.98683536465268 6.7135e-06 deg
node 187.1960116518357 1.1165e-05 deg
peri 221.5620117517089 4.1636e-05 deg
M 219.3450441717111 4.154e-05 deg
tp 2459549.778949558519
(2021-Dec-01.27894956)
0.00010352 TDB
period 893.9636794210808
2.45
4.9611e-06
1.358e-08
d
yr
n .4027009243072731 2.2348e-09 deg/d
Q 1.96049772666591 7.2533e-09 au
  Orbit Determination Parameters
   # obs. used (total)      292  
   data-arc span      9368 days (25.65 yr)  
   first obs. used      1994-09-27  
   last obs. used      2020-05-21  
   planetary ephem.      DE441  
   SB-pert. ephem.      SB441-N16  
   condition code      0  
   norm. resid. RMS      .66364  
   source      ORB  
   producer      Otto Matic  
   solution date      2021-Apr-13 21:52:00  

Additional Information
 Earth MOID = .696088 au 
 Jupiter MOID = 3.2501 au 
 T_jup = 3.949 
[ show covariance matrix ]

Ephemeris | Orbit Diagram | Orbital Elements | Mission Design | Physical Parameters | Discovery Circumstances ]

Physical Parameter Table
Parameter Symbol Value Units Sigma Reference Notes
absolute magnitude H 17.31   n/a E2021B55  

186620 (2003 FY37)          Discovered 2003-Mar-23 by Spacewatch at Kitt Peak
Reference: 20080520/Numbers.arcLast Updated: 2008-05-22
Ephemeris | Orbit Diagram | Orbital Elements | Mission Design | Physical Parameters | Discovery Circumstances ]
ABOUT SSD CREDITS/AWARDS PRIVACY/COPYRIGHT GLOSSARY LINKS
FirstGov 2021-Jun-17 07:12 UT
(server date/time)  
NASA Home Page
Site Manager:   Ryan S. Park
Webmaster  Alan B. Chamberlin